Regional Weather Roundup
Issued by NWS

Home | Current Version | Previous Version | Graphics & Text | Print | Product List | Glossary On
Versions: 1 2 3 4 5 6 7 8 9 10 11 12 13 14 15 16 17 18 19 20 21 22 23 24 25 26 27 28 29 30 31 32 33 34 35 36 37 38 39 40 41 42 43 44 45 46 47 48 49 50
000
ASUS45 KABQ 120610
RWRNM
NEW MEXICO REGIONAL WEATHER ROUNDUP
NATIONAL WEATHER SERVICE ALBUQUERQUE NM
1100 PM MST MON DEC 11 2017

NOTE: "FAIR" MEANS FEW OR NO CLOUDS BELOW 12,000 FEET AGL WITH NO
       SIGNIFICANT WEATHER OR OBSTRUCTIONS TO VISION.

      THIS PRODUCT IS RELEASED AS TWO VERSIONS.  ONE VERSION NEAR
      THE TOP OF THE HOUR CONTAINING PRELIMINARY DATA FROM ALBUQUERQUE
      AND OTHER STATIONS.  A FINAL VERSION WITH ADDITIONAL DATA IS
      ISSUED ABOUT 10 MINUTES AFTER THE HOUR.

NMZ501-503-504-510>518-120700-
NORTHWEST PLATEAU/NORTHCENTRAL MOUNTAINS

CITY           SKY/WX    TMP DP  RH WIND       PRES   REMARKS
FARMINGTON     FAIR      19   1  45 E8        30.47R WCI   9
6HR MIN TEMP:  16; 6HR MAX TEMP:  37;

LOS ALAMOS     FAIR      38   0  20 SW12      30.51R WCI  31
SANTA FE       FAIR      28   2  32 SW5       30.47R WCI  23
6HR MIN TEMP:  23; 6HR MAX TEMP:  44;

TAOS           FAIR      29   3  33 NW3       30.51R
ANGEL FIRE     FAIR      11   5  76 CALM      30.54S

$$
NMZ402-403-502-505>509-120700-
WESTCENTRAL MOUNTAINS/SOUTHWEST MOUNTAINS

CITY           SKY/WX    TMP DP  RH WIND       PRES   REMARKS
GALLUP         FAIR      13  -9  37 CALM      30.48R
6HR MIN TEMP:  13; 6HR MAX TEMP:  45;

GRANTS         FAIR      23  -8  25 NW13      30.50R WCI  11
SILVER CITY    FAIR      33   4  30 CALM      30.38R

$$
NMZ407-409-411-412-120700-
SOUTHERN DESERTS

CITY           SKY/WX    TMP DP  RH WIND       PRES   REMARKS
DEMING         FAIR      35   7  31 N7        30.38R WCI  29
6HR MIN TEMP:  35; 6HR MAX TEMP:  53;

LAS CRUCES     FAIR      35   7  30 W8        30.39R WCI  28
HOLLOMAN AFB   FAIR      29   4  35 NW5       30.42R WCI  24
ALAMOGORDO     FAIR      36   7  30 N7        30.39R WCI  30
T OR C         FAIR      38   5  25 N6        30.39R WCI  33
6HR MIN TEMP:  33; 6HR MAX TEMP:  50;


$$
NMZ519>523-120700-
CENTRAL VALLEYS/CENTRAL HIGHLANDS

CITY           SKY/WX    TMP DP  RH WIND       PRES   REMARKS
ALBUQUERQUE    FAIR      40   0  18 N6        30.45R
6HR MIN TEMP:  31; 6HR MAX TEMP:  48;

MORIARTY ARPT  FAIR      26   0  32 S5        30.50R WCI  21
6HR MIN TEMP:  17; 6HR MAX TEMP:  48;

CLINES CORNERS FAIR      34   1  24 E14       30.51R WCI  25
6HR MIN TEMP:  34; 6HR MAX TEMP:  44;

BELEN          FAIR      27   0  31 CALM      30.46R
6HR MIN TEMP:  22; 6HR MAX TEMP:  42;

SOCORRO        FAIR      32  -1  24 NW8       30.43R WCI  25
6HR MIN TEMP:  32; 6HR MAX TEMP:  47;


$$
NMZ524>526-539-540-120700-
SOUTHCENTRAL MOUNTAINS

CITY           SKY/WX    TMP DP  RH WIND       PRES   REMARKS
RUIDOSO        FAIR      37   0  20 SE10      30.50R WCI  30

$$
NMZ527>531-120700-
NORTHEAST HIGHLANDS/NORTHEAST PLAINS

CITY           SKY/WX    TMP DP  RH WIND       PRES   REMARKS
LAS VEGAS      FAIR      31   3  30 N8        30.52S WCI  23
6HR MIN TEMP:  29; 6HR MAX TEMP:  41;

RATON          FAIR      26   3  37 N8        30.49R WCI  18
6HR MIN TEMP:  26; 6HR MAX TEMP:  51;

CLAYTON        FAIR      32   7  35 NW7       30.47R WCI  26
6HR MIN TEMP:  32; 6HR MAX TEMP:  40;


$$
NMZ532>537-120700-
EASTCENTRAL PLAINS

CITY           SKY/WX    TMP DP  RH WIND       PRES   REMARKS
SANTA ROSA     FAIR      35   6  30 N5        30.47S WCI  31
TUCUMCARI      FAIR      33  10  38 N5        30.45R WCI  29
6HR MIN TEMP:  32; 6HR MAX TEMP:  53;

CANNON AFB     FAIR      33  11  40 N8        30.45S WCI  26
6HR MIN TEMP:  32; 6HR MAX TEMP:  47;

CLOVIS AIRPORT FAIR      30  14  51 N12       30.45R WCI  20

$$
NMZ028-029-538-120700-
SOUTHEAST PLAINS

CITY           SKY/WX    TMP DP  RH WIND       PRES   REMARKS
ROSWELL        FAIR      40  10  29 NW7       30.42R
6HR MIN TEMP:  37; 6HR MAX TEMP:  59;

ARTESIA        FAIR      36   7  30 NW10      30.41R WCI  28
CARLSBAD       FAIR      41  23  48 NW9       30.38R
6HR MIN TEMP:  36; 6HR MAX TEMP:  56;

HOBBS          FAIR      37   9  30 NE10      30.39R WCI  30


$$




USA.gov is the U.S. government's official web portal to all federal, state and local government web resources and services.